Hourly Weather Malaryta

Today, 28 September, Monday

Time Temperature Precipitation Wind Pressure Humidity
00:00 +8°C° 0 mm 2 mps 746 mmHg 90%
01:00 +8°C° 0 mm 2 mps 747 mmHg 90%
02:00 +9°C° 0 mm 1 mps 747 mmHg 91%
03:00 +7°C° 0 mm 2 mps 747 mmHg 91%
04:00 +7°C° 0 mm 2 mps 747 mmHg 92%
05:00 +7°C° 0 mm 2 mps 748 mmHg 92%
06:00 +8°C° 0 mm 2 mps 748 mmHg 89%
07:00 +8°C° 0 mm 2 mps 748 mmHg 85%
08:00 +9°C° 0 mm 2 mps 748 mmHg 81%
09:00 +12°C° 0 mm 2 mps 748 mmHg 73%
10:00 +13°C° 0 mm 3 mps 749 mmHg 65%
11:00 +16°C° 0 mm 3 mps 749 mmHg 57%
12:00 +16°C° 0 mm 3 mps 748 mmHg 55%
13:00 +17°C° 0 mm 3 mps 748 mmHg 53%
14:00 +18°C° 0 mm 4 mps 748 mmHg 52%
15:00 +18°C° 0 mm 3 mps 748 mmHg 56%
16:00 +18°C° 0 mm 3 mps 748 mmHg 61%
17:00 +17°C° 0 mm 3 mps 747 mmHg 66%
18:00 +16°C° 0 mm 3 mps 747 mmHg 69%
19:00 +14°C° 0 mm 4 mps 747 mmHg 71%
20:00 +13°C° 0 mm 4 mps 747 mmHg 74%
21:00 +13°C° 0 mm 4 mps 746 mmHg 73%
22:00 +13°C° 0 mm 4 mps 746 mmHg 72%
23:00 +13°C° 0 mm 5 mps 746 mmHg 71%

Tomorrow, 29 September, Tuesday

Time Temperature Precipitation Wind Pressure Humidity
00:00 +13°C° 0 mm 4 mps 746 mmHg 71%
01:00 +13°C° 0 mm 4 mps 746 mmHg 70%
02:00 +13°C° 0 mm 4 mps 745 mmHg 70%
03:00 +12°C° 0 mm 4 mps 745 mmHg 71%
04:00 +12°C° 0 mm 4 mps 745 mmHg 72%
05:00 +12°C° 0 mm 4 mps 744 mmHg 74%
06:00 +12°C° 0 mm 4 mps 745 mmHg 73%
07:00 +12°C° 0 mm 4 mps 745 mmHg 72%
08:00 +13°C° 0 mm 4 mps 745 mmHg 71%
09:00 +13°C° 0.1 mm 4 mps 745 mmHg 69%
10:00 +14°C° 0.1 mm 4 mps 745 mmHg 68%
11:00 +14°C° 0.1 mm 4 mps 745 mmHg 66%
12:00 +15°C° 0 mm 4 mps 745 mmHg 65%
13:00 +17°C° 0 mm 4 mps 745 mmHg 63%
14:00 +17°C° 0 mm 4 mps 745 mmHg 61%
15:00 +16°C° 0 mm 3 mps 745 mmHg 65%
16:00 +16°C° 0 mm 3 mps 745 mmHg 70%
17:00 +15°C° 0 mm 2 mps 744 mmHg 74%
18:00 +15°C° 0.1 mm 2 mps 744 mmHg 75%
19:00 +14°C° 0.1 mm 1 mps 745 mmHg 76%
20:00 +14°C° 0.1 mm 1 mps 745 mmHg 77%
21:00 +14°C° 0 mm 1 mps 745 mmHg 78%
22:00 +14°C° 0 mm 2 mps 744 mmHg 79%
23:00 +14°C° 0 mm 2 mps 744 mmHg 81%

Day after tomorrow, 30 September, Wednesday

Time Temperature Precipitation Wind Pressure Humidity
00:00 +13°C° 0 mm 2 mps 744 mmHg 82%
01:00 +12°C° 0 mm 3 mps 743 mmHg 83%
02:00 +12°C° 0 mm 3 mps 743 mmHg 84%
03:00 +12°C° 0.1 mm 3 mps 743 mmHg 86%
04:00 +12°C° 0.1 mm 4 mps 743 mmHg 87%
05:00 +12°C° 0.1 mm 4 mps 742 mmHg 89%
06:00 +12°C° 0 mm 5 mps 742 mmHg 88%
07:00 +12°C° 0 mm 5 mps 742 mmHg 87%
08:00 +12°C° 0 mm 5 mps 741 mmHg 85%
09:00 +13°C° 0 mm 5 mps 742 mmHg 81%
10:00 +14°C° 0 mm 5 mps 742 mmHg 76%
11:00 +15°C° 0 mm 5 mps 742 mmHg 71%
12:00 +15°C° 0 mm 5 mps 742 mmHg 70%
13:00 +15°C° 0 mm 5 mps 741 mmHg 69%
14:00 +16°C° 0 mm 5 mps 741 mmHg 68%
15:00 +15°C° 0.1 mm 5 mps 741 mmHg 71%
16:00 +14°C° 0.1 mm 5 mps 741 mmHg 73%
17:00 +14°C° 0.1 mm 5 mps 741 mmHg 76%
18:00 +13°C° 0.2 mm 5 mps 741 mmHg 76%
19:00 +13°C° 0.2 mm 5 mps 741 mmHg 77%
20:00 +12°C° 0.2 mm 5 mps 741 mmHg 77%
21:00 +12°C° 0 mm 5 mps 741 mmHg 76%
22:00 +12°C° 0 mm 5 mps 741 mmHg 74%
23:00 +12°C° 0 mm 4 mps 741 mmHg 72%

1 October, Thursday

Time Temperature Precipitation Wind Pressure Humidity
00:00 +12°C° 0 mm 4 mps 740 mmHg 73%
01:00 +11°C° 0 mm 4 mps 740 mmHg 74%
02:00 +11°C° 0 mm 4 mps 740 mmHg 75%
03:00 +11°C° 0.3 mm 4 mps 740 mmHg 79%
04:00 +11°C° 0.3 mm 4 mps 740 mmHg 83%
05:00 +10°C° 0.3 mm 4 mps 740 mmHg 87%
06:00 +11°C° 0.3 mm 4 mps 740 mmHg 89%
07:00 +11°C° 0.3 mm 3 mps 740 mmHg 91%
08:00 +11°C° 0.3 mm 3 mps 740 mmHg 92%
09:00 +12°C° 0.1 mm 3 mps 740 mmHg 90%
10:00 +13°C° 0.1 mm 3 mps 740 mmHg 88%
11:00 +14°C° 0.1 mm 3 mps 740 mmHg 86%
12:00 +14°C° 0.2 mm 3 mps 740 mmHg 82%
13:00 +15°C° 0.2 mm 4 mps 740 mmHg 78%
14:00 +17°C° 0.2 mm 4 mps 740 mmHg 74%
15:00 +17°C° 0.3 mm 3 mps 740 mmHg 75%
16:00 +16°C° 0.3 mm 3 mps 740 mmHg 77%
17:00 +16°C° 0.3 mm 3 mps 740 mmHg 78%
18:00 +14°C° 0 mm 3 mps 740 mmHg 82%
19:00 +14°C° 0 mm 2 mps 740 mmHg 86%
20:00 +12°C° 0 mm 2 mps 740 mmHg 90%
21:00 +12°C° 0 mm 2 mps 740 mmHg 91%
22:00 +12°C° 0 mm 2 mps 740 mmHg 92%
23:00 +10°C° 0 mm 2 mps 740 mmHg 93%

2 October, Friday

Time Temperature Precipitation Wind Pressure Humidity
00:00 +10°C° 0 mm 2 mps 740 mmHg 94%
01:00 +10°C° 0 mm 2 mps 739 mmHg 95%
02:00 +10°C° 0 mm 2 mps 739 mmHg 96%
03:00 +10°C° 0 mm 2 mps 739 mmHg 96%
04:00 +9°C° 0 mm 3 mps 739 mmHg 97%
05:00 +9°C° 0 mm 3 mps 739 mmHg 97%
06:00 +10°C° 0 mm 3 mps 739 mmHg 96%
07:00 +10°C° 0 mm 3 mps 739 mmHg 95%
08:00 +10°C° 0 mm 3 mps 739 mmHg 94%
09:00 +11°C° 0 mm 3 mps 739 mmHg 91%
10:00 +12°C° 0 mm 3 mps 739 mmHg 88%
11:00 +13°C° 0 mm 3 mps 739 mmHg 85%
12:00 +14°C° 0 mm 3 mps 739 mmHg 81%
13:00 +16°C° 0 mm 3 mps 739 mmHg 76%
14:00 +17°C° 0 mm 3 mps 739 mmHg 72%
15:00 +17°C° 0 mm 2 mps 739 mmHg 74%
16:00 +17°C° 0 mm 2 mps 739 mmHg 76%
17:00 +16°C° 0 mm 2 mps 739 mmHg 78%
18:00 +15°C° 0 mm 2 mps 739 mmHg 81%
19:00 +14°C° 0 mm 2 mps 739 mmHg 85%
20:00 +12°C° 0 mm 3 mps 739 mmHg 89%
21:00 +12°C° 0 mm 3 mps 739 mmHg 88%
22:00 +12°C° 0 mm 3 mps 739 mmHg 87%
23:00 +12°C° 0 mm 4 mps 739 mmHg 86%

3 October, Saturday

Time Temperature Precipitation Wind Pressure Humidity
00:00 +12°C° 0.4 mm 4 mps 739 mmHg 89%
01:00 +13°C° 0.4 mm 4 mps 739 mmHg 91%
02:00 +13°C° 0.4 mm 4 mps 739 mmHg 93%
03:00 +13°C° 0.4 mm 4 mps 738 mmHg 92%
04:00 +13°C° 0.4 mm 4 mps 738 mmHg 92%
05:00 +13°C° 0.4 mm 5 mps 738 mmHg 91%
06:00 +13°C° 0 mm 5 mps 738 mmHg 91%
07:00 +14°C° 0 mm 5 mps 738 mmHg 90%
08:00 +14°C° 0 mm 5 mps 738 mmHg 89%
09:00 +14°C° 0 mm 5 mps 738 mmHg 86%
10:00 +15°C° 0 mm 6 mps 738 mmHg 82%
11:00 +16°C° 0 mm 6 mps 739 mmHg 79%
12:00 +17°C° 0 mm 6 mps 739 mmHg 76%
13:00 +19°C° 0 mm 6 mps 738 mmHg 72%
14:00 +20°C° 0 mm 5 mps 738 mmHg 69%
15:00 +20°C° 0 mm 6 mps 738 mmHg 69%
16:00 +20°C° 0 mm 6 mps 738 mmHg 69%
17:00 +20°C° 0 mm 6 mps 738 mmHg 69%
18:00 +19°C° 0 mm 6 mps 738 mmHg 70%
19:00 +17°C° 0 mm 6 mps 739 mmHg 71%
20:00 +17°C° 0 mm 6 mps 739 mmHg 72%
21:00 +17°C° 0 mm 6 mps 739 mmHg 70%
22:00 +19°C° 0 mm 6 mps 739 mmHg 68%
23:00 +19°C° 0 mm 6 mps 739 mmHg 66%
Show more